SCP
0 0 0 0 0 0 0 0 0 0 0 0 0 0 0 0 0 0 0 0 0 0 0 0 0 0 0 0 0 0 0 0 0 0 0 0 0 0
0 0 0 0 0 0 0 0 0 0 0 0 0 0 0 0 0 0 0 0 0 0 0 0 0 0 0 0 0 0 0 0 0 0 0 0 0 0
0 0 0 0 0 0 0 0 0 0 0 0 0 0 0 0 0 0 0 0 0 0 0 0 0 0 0 0 0 0 0 0 0 0 0 0 0 0
0 0 0 0 0 0 0 0 0 0 0 0 0 0 0 0 0 0 0 0 0 0 0 0 0 0 0 0 0 0 0 0 0 0 0 0 0 0
0 0 0 0 0 0 0 0 0 0 0 0 0 0 0 0 0 0 0 0 0 0 0 0 0 0 0 0 0 0 0 0 0 0 0 0 0 0
0 0 0 0 0 0 0 0 0 0 0 0 0 0 0 0 0 0 0 0 0 0 0 0 0 0 0 0 0 0 0 0 0 0 0 0 0 0
0 0 0 0 0 0 0 0 0 0 0 0 0 0 0 0 0 0 0 0 0 0 0 0 0 0 0 0 0 0 0 0 0 0 0 0 0 0
0 0 0 0 0 0 0 0 0 0 0 0 0 0 0 0 0 0 0 0 0 0 0 0 0 0 0 0 0 0 0 0 0 0 0 0 0 0
0 0 0 0 0 0 0 0 0 0 0 0 0 0 0 0 0 0 0 0 0 0 0 0 0 0 0 0 0 0 0 0 0 0 0 0 0 0
0 0 0 0 0 0 0 0 0 0 0 0 0 0 0 0 0 0 0 0 0 0 0 0 0 0 0 0 0 0 0 0 0 0 0 0 0 0
0 0 0 0 0 0 0 0 0 0 0 0 0 0 0 0 0 0 0 0 0 0 0 0 0 0 0 0 0 0 0 0 0 0 0 0 0 0
0 0 0 0 0 0 0 0 0 0 0 0 0 0 0 0 0 0 0 0 0 0 0 0 0 0 0 0 0 0 0 0 0 0 0 0 0 0
0 0 0 0 0 0 0 0 0 0 0 0 0 0 0 0 0 0 0 0 0 0 0 0 0 0 0 0 0 0 0 0 0 0 0 0 0 0
0 0 0 0 0 0 0 0 0 0 0 0 0 0 0 0 0 0 0 0 0 0 0 0 0 0 0 0 0 0 0 0 0 0 0 0 0 0
0 0 0 0 0 0 0 0 0 0 0 0 0 0 0 0 0 0 0 0 0 0 0 0 0 0 0 0 0 0 0 0 0 0 0 0 0 0
0 0 0 0 0 0 0 0 0 0 0 0 0 0 0 0 0 0 0 0 0 0 0 0 0 0 0 0 0 0 0 0 0 0 0 0 0 0
0 0 0 0 0 0 0 0 0 0 0 0 0 0 0 0 0 0 0 0 0 0 0 0 0 0 0 0 0 0 0 0 0 0 0 0 0 0
0 0 0 0 0 0 0 0 0 0 0 0 0 0 0 0 0 0 0 0 0 0 0 0 0 0 0 0 0 0 0 0 0 0 0 0 0 0
0 0 0 0 0 0 0 0 0 0 0 0 0 0 0 0 0 0 0 0 0 0 0 0 0 0 0 0 0 0 0 0 0 0 0 0 0 0
0 0 0 0 0 0 0 0 0 0 0 0 0 0 0 0 0 0 0 0 0 0 0 0 0 0 0 0 0 0 0 0 0 0 0 0 0 0
0 0 0 0 0 0 0 0 0 0 0 0 0 0 0 0 0 0 0 0 0 0 0 0 0 0 0 0 0 0 0 0 0 0 0 0 0 0
0 0 0 0 0 0 0 0 0 0 0 0 0 0 0 0 0 0 0 0 0 0 0 0 0 0 0 0 0 0 0 0 0 0 0 0 0 0
0 0 0 0 0 0 0 0 0 0 0 0 0 0 0 0 0 0 0 0 0 0 0 0 0 0 0 0 0 0 0 0 0 0 0 0 0 0
Wind_Speed
4 4 3 3 3 3 3 4 4 5 5 4 3 2 3 4 5 6 6 7 9 9 9 10 11 11 12 12 12 13 13 13 13 14 15 15 16 16
3 4 4 3 3 3 3 3 4 5 5 4 4 4 4 4 6 6 6 8 8 9 10 10 11 12 12 12 13 13 13 13 13 14 15 15 15 15
3 4 4 4 3 3 3 3 4 4 6 6 5 5 6 6 5 5 6 6 5 8 10 10 11 11 12 12 12 12 12 12 13 13 14 14 14 14
4 3 4 3 4 3 3 3 4 4 5 7 5 5 6 6 6 6 5 5 6 7 9 10 10 10 11 11 11 11 11 11 12 12 13 14 14 14
3 3 3 3 4 3 3 3 3 3 4 5 5 4 4 4 6 6 6 5 6 6 8 9 9 9 10 10 11 10 10 11 11 11 12 12 13 13
3 3 3 4 4 4 3 4 3 3 4 4 5 4 4 4 5 5 5 5 6 5 6 7 8 9 9 10 10 10 10 10 11 11 11 11 11 11
3 3 3 3 4 4 3 3 3 3 3 4 4 4 4 3 4 4 6 6 6 4 5 5 6 5 5 7 8 9 10 10 10 10 11 11 11 11
3 2 3 3 3 3 3 3 3 4 5 4 5 5 6 5 5 4 5 5 5 3 5 6 5 5 5 4 7 10 10 10 10 10 10 10 10 10
3 3 2 2 3 2 2 3 3 4 6 6 6 6 6 5 5 6 6 6 6 5 5 6 5 5 5 5 9 9 9 9 10 10 9 10 10 10
3 3 3 3 2 3 3 3 3 4 4 5 5 5 5 5 6 6 6 6 6 4 4 5 5 5 6 6 7 8 8 9 10 10 10 10 10 10
2 3 3 3 2 3 3 3 4 3 3 4 5 6 7 7 6 4 4 4 5 4 3 4 4 6 6 5 5 7 8 9 10 10 10 10 10 10
2 2 3 3 3 4 4 4 4 4 4 3 4 4 5 4 4 4 4 4 4 4 2 3 4 4 5 4 4 5 5 7 9 10 10 10 10 7
2 2 2 2 4 5 5 4 5 5 4 4 3 3 3 3 3 3 4 4 4 4 3 3 4 4 4 5 5 5 5 5 5 6 7 9 9 8
2 2 2 3 4 5 4 4 4 4 3 3 3 3 3 3 3 4 4 4 4 6 5 4 4 4 5 6 5 5 5 5 5 5 5 7 8 9
2 3 3 4 4 3 3 4 4 3 3 3 3 3 3 3 4 3 4 4 4 4 4 5 5 5 5 5 5 5 5 5 4 5 5 5 6 6
1 1 2 2 2 2 3 2 2 2 3 3 3 3 3 3 3 3 4 4 4 3 3 4 5 5 5 6 6 6 5 4 5 6 6 6 5 5
1 1 1 1 1 1 2 2 2 2 2 2 2 3 3 3 3 3 3 3 3 4 5 4 4 4 5 5 5 5 5 5 5 5 6 7 6 5
2 2 2 2 2 2 2 2 2 2 2 2 2 3 3 3 3 3 3 3 4 4 4 5 5 4 3 3 4 5 5 5 5 6 6 6 7 6
2 2 2 2 2 2 2 2 2 2 2 2 3 3 3 3 3 3 3 3 3 4 4 4 4 4 5 5 3 3 5 6 6 6 5 6 7 7
1 2 2 2 2 2 2 2 2 2 2 2 3 3 3 3 3 3 3 4 4 4 4 4 3 4 5 5 5 5 6 6 6 6 6 6 7 9
1 1 2 2 2 2 2 2 2 2 3 3 3 3 3 3 3 3 3 4 4 4 4 4 4 7 5 4 5 5 5 6 7 6 7 7 7 6
1 2 2 2 2 2 2 2 2 2 3 3 3 3 3 3 3 4 3 4 4 4 5 4 4 4 3 4 5 6 7 7 7 10 10 8 6 5
2 2 2 2 2 2 2 2 3 3 3 3 3 3 3 3 3 3 3 4 4 4 4 4 4 4 4 4 5 6 8 8 6 6 6 7 10 13
Wind_Direction
206 211 219 224 230 236 240 244 256 268 271 263 258 261 290 294 306 295 294 301 298 298 299 303 300 296 295 297 299 300 301 302 302 301 298 297 298 298
208 213 218 223 225 230 236 245 252 261 268 274 275 289 292 291 299 295 293 298 288 295 298 299 301 299 294 295 296 297 299 299 299 298 297 297 296 297
207 215 221 223 226 231 234 238 246 253 263 275 279 289 291 295 300 300 301 299 292 293 297 299 300 299 298 297 298 299 300 300 299 299 301 302 302 302
212 219 229 229 231 234 235 240 250 257 263 273 286 291 292 298 302 303 305 299 295 299 298 299 301 305 307 305 303 303 304 305 304 304 304 304 304 303
216 220 229 232 237 238 244 249 254 260 263 271 283 295 293 303 305 304 303 301 297 298 295 294 297 304 307 307 306 302 302 302 302 303 304 306 307 308
216 221 228 232 240 241 246 254 262 268 271 272 279 290 294 305 304 304 304 305 302 301 296 299 301 300 301 304 307 305 302 301 302 303 305 307 308 308
215 220 229 237 252 256 258 261 263 267 272 275 278 288 289 299 297 303 299 305 299 299 307 305 305 302 302 302 307 314 308 303 299 301 303 304 306 307
217 226 227 229 233 249 271 283 282 275 274 273 276 279 289 296 302 301 303 306 299 308 306 301 300 297 301 301 314 316 313 309 304 306 305 306 308 308
216 225 231 233 248 250 258 267 271 274 273 274 276 281 290 296 300 297 293 292 292 309 304 293 298 295 305 308 312 311 314 316 318 316 316 316 313 310
225 230 233 236 241 258 268 275 279 279 277 274 277 284 292 297 287 285 289 291 292 294 299 290 302 304 310 305 308 308 310 313 316 317 317 317 314 310
227 238 243 248 240 258 264 265 275 282 279 275 284 290 298 301 301 295 295 293 295 299 306 292 303 309 302 295 303 310 309 310 312 314 316 316 314 311
228 237 245 254 262 271 265 265 271 281 287 290 290 291 291 292 293 286 287 289 297 298 315 303 303 316 303 299 311 312 308 308 309 311 315 317 318 313
242 249 254 260 277 283 281 273 274 283 286 286 290 295 299 301 301 298 293 284 283 281 299 306 298 301 291 302 307 307 308 313 314 310 309 317 318 315
255 260 264 277 291 293 288 283 286 289 279 281 285 292 302 308 312 312 306 299 290 285 287 286 279 285 290 292 293 304 310 311 311 310 313 315 312 310
263 268 278 286 296 295 292 295 296 283 277 279 284 294 306 309 310 310 312 311 309 304 297 289 279 279 277 279 287 296 304 304 303 308 312 312 312 311
267 276 302 308 304 304 307 305 293 282 281 284 296 303 309 306 308 316 315 315 311 313 317 309 297 285 280 282 282 288 294 297 305 309 309 306 305 301
275 278 272 273 275 288 302 308 306 297 293 293 292 297 302 305 312 318 312 310 308 310 318 324 320 306 287 283 284 285 293 297 302 312 311 304 301 300
252 246 251 255 261 273 286 296 304 306 309 305 297 297 300 303 307 312 312 313 314 314 316 321 322 317 299 274 257 280 292 299 305 306 302 299 299 304
234 234 243 252 263 275 278 285 296 306 307 302 299 297 297 298 301 306 311 314 314 312 313 316 319 317 311 310 298 271 295 302 303 301 300 297 297 302
238 241 249 257 263 266 272 283 293 297 295 297 299 299 296 295 297 301 305 310 309 310 310 312 315 313 305 303 300 297 296 296 299 303 306 302 295 293
263 264 264 266 268 268 271 278 283 288 294 297 298 298 296 296 297 298 299 302 304 305 307 310 311 311 300 289 286 292 300 298 296 294 302 302 301 301
277 277 278 273 269 266 267 271 276 281 287 289 293 296 295 293 291 294 298 299 300 302 304 305 308 307 301 295 299 303 307 311 302 292 281 274 289 300
285 278 274 270 264 263 265 267 272 276 281 286 287 290 291 289 289 288 291 292 296 302 307 308 309 307 302 296 299 303 308 312 312 312 304 294 286 284